Location: Tr�vern
(48.0333°N, 4.6000°W)
Time: 19:09:15
(UTC+00:00)

Cosmos 2208 Rocket - Pass Details

Date: 14 July 2020
Orbit: 754 x 806 km, 74.0° (Epoch: 12 August)

Event Time Altitude Azimuth Distance (km) Brightness Sun altitude
Rises 03:43:51 0° 337° (NNW) 3,320 7.6 -7.3°
Reaches altitude 10° 03:46:17 10° 338° (NNW) 2,380 6.9 -7.0°
Maximum altitude 03:51:43 83° 67° (ENE) 802 4.2 -6.3°
Drops below altitude 10° 03:57:02 10° 156° (SSE) 2,331 6.3 -5.7°
Sets 03:59:23 0° 157° (SSE) 3,246 7.1 -5.4°
